Location: Cucq
(50.4773°N, 1.6202°E)
Time: 04:20:47
(UTC+00:00)

SL-16 R/B - Visible Passes

Search period start: 02 December 2020 00:00
Search period end: 12 December 2020 00:00
Orbit: 986 x 1006 km, 99.5° (Epoch: 01 December)

Date Brightness Start Highest point End Pass type
(mag) Time Alt. Az. Time Alt. Az. Time Alt. Az.
03 Dec 4.6 16:45:25 10° N 16:49:47 20° NW 16:54:08 10° W visible
04 Dec 4.9 17:17:08 10° NNW 17:20:04 14° NW 17:22:59 10° WNW visible
06 Dec 4.5 16:34:05 10° N 16:38:50 23° NW 16:43:33 10° WSW visible
07 Dec 4.8 17:05:38 10° NNW 17:09:09 16° NW 17:12:41 10° W visible
08 Dec 5.0 17:38:10 10° NNW 17:39:21 11° NW 17:40:32 10° NW visible
09 Dec 4.3 16:22:47 10° N 16:27:51 27° NW 16:32:54 10° WSW visible
10 Dec 4.7 16:54:12 10° N 16:58:14 18° NW 17:02:15 10° W visible
11 Dec 4.9 17:26:09 10° NNW 17:28:29 12° NW 17:30:48 10° WNW visible
